Regional Weather Roundup
Issued by NWS

Home | Current Version | Previous Version | Graphics & Text | Print | Product List | Glossary On
Versions: 1 2 3 4 5 6 7 8 9 10 11 12 13 14 15 16 17 18 19 20 21 22 23 24 25 26 27 28 29 30 31 32 33 34 35 36 37 38 39 40 41 42 43 44 45 46 47 48 49 50
000
ASUS43 KMKX 281313
RWRWI

WISCONSIN REGIONAL WEATHER ROUNDUP
NATIONAL WEATHER SERVICE MILWAUKEE/SULLIVAN WI
800 AM CDT THU MAY 28 2015

NOTE: "FAIR" INDICATES FEW OR NO CLOUDS BELOW 12,000 FEET WITH NO
SIGNIFICANT WEATHER AND/OR OBSTRUCTIONS TO VISIBILITY.

WIZ001-002-006>008-014>016-023>028-281400-
NORTHWEST WISCONSIN

CITY           SKY/WX    TMP DP  RH WIND       PRES   REMARKS
SUPERIOR ARPT  CLOUDY    43  40  88 E13G20    30.14F
ASHLAND        PTSUNNY   49  46  90 N6        30.13S
HAYWARD        SUNNY     60  56  86 N5        30.09S
SIREN          SUNNY     59  56  92 E3        30.07S
CUMBERLAND     SUNNY     59  55  88 CALM      30.09S
RICE LAKE      SUNNY     61  56  82 SE5       30.11R
CHETEK         SUNNY     60  56  87 CALM      30.10S
LADYSMITH      SUNNY     59  58  96 E5        30.12S
EAU CLAIRE     NOT AVBL
MENOMONIE      SUNNY     62  60  93 E3        30.10R
NEW RICHMOND   SUNNY     65  56  70 S7        30.08R
OSCEOLA        SUNNY     65  60  84 S7        30.09S
$$

WIZ003>005-009-010-017-018-281400-
NORTH CENTRAL WISCONSIN

CITY           SKY/WX    TMP DP  RH WIND       PRES   REMARKS
MANITOWISH WTR SUNNY     57  57  99 CALM      30.13S
ARBOR VITAE    SUNNY     59  57  91 SE3       30.13S
WOODRUFF       SUNNY     59  57  91 SE3       30.13S
RHINELANDER    SUNNY     60  56  86 CALM      30.15S
EAGLE RIVER    SUNNY     57  57 100 S3        30.15S
LAND O LAKES   SUNNY     57  56  97 CALM      30.15F
PHILLIPS       SUNNY     61  57  88 CALM      30.11F
TOMAHAWK       SUNNY     57  56  97 CALM      30.14F
MEDFORD        SUNNY     60  57  91 CALM      30.13S
MERRILL        SUNNY    N/A N/A N/A CALM      30.15S
$$

WIZ029-030-035-036-043>047-281400-
CENTRAL WISCONSIN

CITY           SKY/WX    TMP DP  RH WIND       PRES   REMARKS
WAUSAU         SUNNY     62  58  86 E5        30.12F
MOSINEE        NOT AVBL
MARSHFIELD     SUNNY     63  58  83 SW5       30.14R
STEVENS POINT  SUNNY     59  58  94 CALM      30.14F
WAUPACA        SUNNY     62  61  96 CALM      30.14F
WAUTOMA        NOT AVBL
WISC RAPIDS    SUNNY     64  59  83 SW6       30.15R
CAMP DOUGLAS   NOT AVBL
$$

WIZ011>013-019>022-031-037>040-048>050-281400-
NORTHEAST WISCONSIN

CITY           SKY/WX    TMP DP  RH WIND       PRES   REMARKS
ANTIGO         SUNNY     60  57  89 CALM      30.15F
SHAWANO        SUNNY     61  60  96 CALM      30.16S
OCONTO         SUNNY     60  60 100 CALM      30.15F
STURGEON BAY   SUNNY     61  57  88 CALM      30.19S
GREEN BAY      SUNNY     66  59  78 CALM      30.15S
MANITOWOC      NOT AVBL
APPLETON       SUNNY     66  61  82 S5        30.15F
CLINTONVILLE   SUNNY     59  59 100 CALM      30.14F
OSHKOSH        SUNNY     68  60  75 S6        30.14F
$$

WIZ032>034-041-042-053>061-281400-
SOUTHWEST WISCONSIN

CITY           SKY/WX    TMP DP  RH WIND       PRES   REMARKS
LA CROSSE      SUNNY     68  59  73 S6        30.13R
SPARTA         SUNNY     62  58  86 CALM      30.14R
VIROQUA        SUNNY     65  58  77 S5        30.16R
BOSCOBEL       FOG       61  60  97 CALM      30.16R VSB 1/2
PRAIRIE DU CHI SUNNY     62  59  90 CALM      30.15R
PLATTEVILLE    SUNNY     65  60  85 SE6       30.17S
$$

WIZ056-057-062-063-064-067-068-281400-
SOUTH CENTRAL WISCONSIN

CITY           SKY/WX    TMP DP  RH WIND       PRES   REMARKS
REEDSBURG      SUNNY     65  59  79 CALM      30.14S
BARABOO/DELLS  SUNNY     66  57  71 SW5       30.15S
LONE ROCK      NOT AVBL
MINERAL POINT  SUNNY     64  59  82 S6        30.17S
MADISON        MOSUNNY   69  57  65 S3        30.17R
MIDDLETON      SUNNY     69  56  63 SW3       30.17S
WATERTOWN      SUNNY    N/A N/A N/A SW5       30.17S
MONROE         SUNNY     66  57  72 SW9       30.18R
JANESVILLE     SUNNY     66  59  77 CALM      30.18
$$

WIZ051-052-058>065-066-070>072-281400-
SOUTHEAST WISCONSIN

CITY           SKY/WX    TMP DP  RH WIND       PRES   REMARKS
MILWAUKEE      SUNNY     71  57  61 SW3       30.17S
WAUKESHA       SUNNY     66  57  72 SW3       30.19S
MILWAUKEE/TIMM SUNNY     70  55  60 W5        30.18S
RACINE         SUNNY     67  57  70 SW7       30.20R
BURLINGTON     SUNNY     61  57  87 SW6       30.19R
KENOSHA        SUNNY     66  59  78 SW6       30.20R
FOND DU LAC    SUNNY     68  59  73 SW9       30.16S
SHEBOYGAN      SUNNY     70  61  73 SW6       30.15S
WEST BEND      SUNNY     70  59  68 SW5       30.17S
JUNEAU         SUNNY     64  58  81 S6        30.19R
$$

LSZ147-162-281400-
LAKE SUPERIOR

STATION/POSITION TIME  TEMP    WIND        PRES    WAVE
                       AIR SEA DIR/SP/G            HT/PER
                 (UTC) (F)     (DEG/KT/KT) (MB)    (FT/S)
W MID LAKE BUOY  1150   38 37   60/ 16/ 17   N/A     3/ 4
DEVILS ISLAND    1200   41      70/ 15/ 16   N/A
PORT WING        1200   42      30/ 13/ 15   N/A
$$

LMZ867-665-643>646-281400-
LAKE MICHIGAN

STATION/POSITION TIME  TEMP    WIND        PRES    WAVE
                       AIR SEA DIR/SP/G            HT/PER
                 (UTC) (F)     (DEG/KT/KT) (MB)    (FT/S)
CHAMBERS ISLAND  1200   61     260/  2/  5   N/A
N MID LAKE BUOY  1150   40 36  230/  6/  6   N/A     1/ 4
NORTHPORT PIER   1200   53     140/  2/  3   N/A
SISTER BAY       1233   62        CALM       N/A
ALGOMA LAKESHORE 1208             CALM       N/A
KEWAUNEE LAKESHO 1200   49      CALM  /  4   N/A
SHEBOYGAN LAKESH 1200   60     180/  4/  4   N/A
PORT WASHINGTON  1200   70     280/  5/  8   N/A
ATWATER BUOY     1200   56 47  130/  4/  4   N/A
MILWAUKEE LAKESH 1200   65     200/  7/  8   N/A
S MID LAKE BUOY  1150   44 38  180/  8/  8   N/A     0
KENOSHA   LAKESH 1200   57     190/  4/  6   N/A
$$

TC  - TEMPERATURE IN CELSIUS
VSB - VISIBILITY IN STATUTE MILES
WCI - WIND CHILL INDEX
HX  - HEAT INDEX




USA.gov is the U.S. government's official web portal to all federal, state and local government web resources and services.